Wind_Speed
27 25 24 23 18 18 29 22 15 11 7 13 15 16 14 13 10 7 8 3 6 10 2 3 4 5 8 8 7 9 11 12 13 15 19 26 27 27 26 24 23 19 22 21
32 30 26 28 22 21 21 17 15 13 11 10 8 11 12 12 10 6 6 10 6 10 10 5 9 12 11 10 11 13 13 13 14 16 18 24 31 29 28 29 27 18 20 23
36 32 24 29 24 23 22 19 18 18 13 11 12 7 15 15 14 13 7 8 10 11 11 16 16 12 13 11 12 12 14 13 11 14 13 21 25 33 31 31 26 23 21 22
31 29 28 30 28 26 24 21 22 22 16 3 22 5 15 19 19 15 10 7 8 8 7 10 12 10 10 11 13 14 17 15 10 11 14 17 22 30 33 31 28 24 27 25
35 31 31 30 30 28 24 28 27 28 25 20 23 16 10 21 23 20 15 11 8 8 8 12 14 10 9 8 11 12 9 6 4 6 12 15 19 26 36 34 32 27 28 28
39 33 32 34 31 27 26 32 33 33 30 24 18 14 10 26 25 25 23 19 15 10 10 11 13 8 8 4 3 7 5 5 4 3 7 13 16 21 28 37 33 30 28 27
38 37 35 33 33 31 31 35 35 34 32 27 23 13 9 17 38 46 27 23 16 11 13 14 12 10 10 14 12 11 10 10 5 1 2 7 14 19 22 27 30 19 26 27
39 38 35 35 32 32 32 34 33 33 31 29 20 20 29 13 38 37 26 24 15 10 14 15 11 18 24 20 18 14 12 15 13 12 9 2 5 11 16 22 30 28 21 30
40 37 35 32 33 31 32 31 36 33 31 25 12 37 30 35 34 29 22 19 16 9 12 13 12 31 27 24 17 18 14 12 14 14 18 13 5 5 11 16 26 28 28 14
38 35 33 29 29 30 30 34 35 31 30 30 32 35 36 29 27 23 17 20 19 13 14 13 13 28 31 29 20 22 15 14 7 2 9 15 5 7 6 13 17 25 27 43
35 32 31 30 29 28 27 29 30 35 33 31 33 34 40 23 30 22 19 18 20 18 19 15 13 17 32 34 29 23 21 22 15 17 15 12 7 5 5 9 17 21 29 36
34 32 31 29 27 27 27 27 26 27 29 30 31 35 41 27 28 26 24 23 20 21 20 19 13 13 19 26 39 33 29 26 22 18 11 8 8 8 9 7 11 19 26 33
34 32 32 30 31 29 28 26 25 25 31 29 31 33 45 39 27 25 24 21 22 23 23 21 10 9 18 22 24 39 36 27 20 14 10 8 4 6 13 11 7 11 19 25
35 34 34 34 32 29 28 28 28 28 28 30 30 33 47 33 35 27 25 22 21 24 25 19 10 9 16 19 21 25 33 26 23 19 15 13 12 11 14 13 7 6 11 19
36 36 35 35 32 32 29 29 30 30 32 31 32 35 38 37 28 23 12 24 26 27 26 19 10 10 18 21 20 22 31 26 21 21 16 18 12 10 8 11 7 3 6 14
37 36 35 33 31 30 30 31 31 31 33 33 35 35 38 37 23 25 23 31 27 28 28 17 8 11 20 18 19 21 27 30 23 24 20 17 14 11 11 11 11 8 14 23
40 39 35 34 30 31 32 34 33 30 31 31 32 38 39 33 24 27 28 31 30 29 24 20 12 15 17 19 19 18 22 31 27 22 23 20 17 15 10 12 19 18 21 24
38 38 37 34 31 32 35 30 32 31 33 33 34 37 35 31 25 29 31 31 32 26 22 13 12 20 16 18 17 13 18 21 26 24 23 23 16 16 14 15 26 24 22 23
45 43 38 33 31 34 29 30 29 27 33 34 35 35 33 31 27 29 34 32 29 23 19 14 22 21 17 16 13 11 14 14 14 14 14 15 17 16 11 14 30 28 24 25
49 46 41 36 34 34 36 33 31 30 30 31 35 34 35 31 26 28 31 33 27 25 16 21 26 21 17 17 18 17 18 15 14 10 11 8 8 7 7 18 29 31 31 27
53 49 43 40 36 37 38 29 32 32 26 31 30 35 34 30 28 37 27 31 28 27 21 28 26 25 21 21 21 24 21 18 13 7 6 1 8 8 8 17 26 30 27 24
54 50 45 44 40 38 34 32 29 31 29 30 31 31 33 32 32 30 26 24 27 28 28 31 28 27 28 25 25 23 20 15 7 6 2 9 9 16 16 16 24 20 20 18
58 49 47 45 45 40 36 31 34 31 31 31 32 29 31 32 31 30 26 22 26 29 31 33 31 31 33 32 29 25 17 16 17 10 8 12 12 14 19 21 21 18 16 14
60 55 50 46 38 39 37 36 32 33 32 31 30 29 31 31 30 29 26 24 28 27 28 35 32 38 38 36 31 28 20 18 17 17 15 17 10 13 15 14 14 10 17 14
66 61 54 49 40 40 42 35 34 33 32 28 28 29 29 29 29 28 24 24 28 29 35 36 38 45 44 40 37 31 26 22 18 13 13 13 16 14 12 12 11 8 5 14
65 63 58 52 48 44 39 39 33 31 29 28 28 30 29 28 28 27 27 28 31 31 33 35 38 49 47 45 41 34 29 28 22 18 16 10 10 11 7 6 2 8 8 6
Wind_Direction
256 265 269 271 266 226 255 276 279 271 257 224 232 238 250 261 250 230 267 296 294 213 186 320 274 310 301 303 290 288 293 291 272 239 227 221 221 212 212 211 214 216 215 222
254 259 267 269 259 258 268 271 268 268 261 256 252 241 244 251 229 241 272 270 276 295 231 232 260 251 241 245 288 286 290 293 266 244 234 222 217 213 220 213 209 212 210 217
252 256 259 257 258 263 270 267 262 264 269 289 301 298 295 276 257 254 267 259 286 285 250 243 250 254 244 257 279 296 299 310 274 255 239 220 218 221 218 207 213 210 206 209
250 248 244 253 259 265 268 264 263 267 263 353 282 142 273 280 279 276 265 269 299 270 256 253 251 239 251 278 300 305 297 295 271 249 227 211 216 212 208 208 208 206 206 209
244 246 247 255 258 261 263 261 260 261 257 231 235 261 297 303 287 288 276 270 282 260 263 270 259 239 244 270 294 313 327 295 286 256 231 220 211 212 206 204 205 206 214 215
247 249 248 249 256 258 257 260 261 263 263 261 252 239 182 267 292 285 277 270 285 270 258 249 245 230 249 239 47 59 92 79 53 305 255 238 221 202 205 208 211 216 222 229
244 245 242 248 251 253 255 258 260 262 263 265 273 255 192 227 270 273 267 263 276 281 255 246 233 204 172 136 125 94 101 96 87 76 205 227 219 206 201 199 201 223 226 229
245 248 247 247 250 250 251 254 258 260 262 262 263 254 178 259 258 252 251 260 274 282 246 247 206 183 158 151 142 124 102 112 91 69 52 62 207 233 210 198 199 212 208 220
245 246 250 246 246 246 242 246 247 246 253 253 189 253 237 229 239 249 250 264 267 269 251 247 190 172 181 180 165 159 133 138 107 83 64 51 38 227 226 210 205 215 218 194
242 244 244 243 239 240 240 240 247 248 241 246 243 252 254 252 250 250 251 252 262 261 256 238 195 187 186 181 188 181 169 170 162 193 326 339 347 29 224 216 195 209 213 196
238 237 238 239 235 236 237 240 244 246 246 245 239 248 257 252 254 255 255 255 256 256 254 249 220 199 210 210 207 204 212 213 225 272 297 295 270 322 341 216 208 208 224 229
238 238 238 238 237 234 235 236 240 248 249 244 246 247 255 260 258 256 254 253 257 263 265 260 239 225 215 215 219 224 224 230 247 268 270 251 269 294 309 296 237 210 210 223
234 235 236 233 236 234 236 239 241 243 250 253 242 240 249 252 254 257 255 255 259 264 265 267 257 238 232 224 223 226 230 235 241 236 236 246 273 334 312 292 278 239 216 214
231 232 233 234 237 240 239 237 237 238 243 247 247 244 250 253 253 253 251 259 264 265 267 261 272 235 248 238 224 226 226 221 225 228 235 246 277 310 321 277 284 265 236 213
230 231 232 233 233 238 240 242 237 238 237 241 244 244 248 252 253 252 260 257 254 260 262 273 286 233 242 245 232 221 222 219 232 232 244 247 253 301 312 281 267 283 216 202
230 231 232 235 235 239 241 240 237 236 239 236 242 244 244 245 243 246 243 245 249 257 263 264 216 234 235 244 239 224 224 221 232 234 234 243 254 265 266 279 232 191 167 147
226 228 229 234 232 233 236 237 238 237 240 239 240 246 248 253 247 245 241 246 248 255 267 275 194 237 236 242 239 233 228 219 225 233 233 242 257 251 262 237 207 183 176 169
228 228 227 228 228 231 230 234 236 236 239 235 239 245 249 251 244 243 242 241 244 252 261 237 232 234 234 236 228 220 216 217 223 238 238 247 241 246 273 233 191 191 192 186
221 224 223 222 220 228 229 230 232 235 235 237 239 243 247 246 244 244 245 242 242 248 255 247 221 230 224 236 219 217 215 214 226 233 236 240 249 242 265 224 189 196 202 201
219 221 219 215 217 223 225 226 228 232 238 240 240 243 245 244 244 247 246 247 242 241 228 224 219 207 208 217 219 216 221 215 219 242 260 259 237 213 253 208 193 198 206 206
218 217 215 215 213 224 223 221 232 228 228 239 240 238 243 243 239 239 241 243 234 233 220 212 216 192 191 207 207 210 208 214 236 258 276 153 168 150 205 208 200 206 210 213
221 220 216 215 215 223 221 225 229 230 226 230 233 237 238 238 238 241 237 238 230 228 210 211 206 190 187 199 202 199 190 207 189 145 89 114 153 161 170 192 201 204 211 221
223 221 221 217 217 219 223 223 227 234 232 230 230 232 233 235 238 235 231 228 222 218 209 211 205 192 183 191 194 186 174 189 157 152 93 101 122 146 167 172 189 200 213 230
220 222 223 222 216 223 224 224 226 238 238 236 232 231 232 230 234 234 226 220 216 212 213 212 206 195 188 195 191 185 178 171 161 155 120 112 115 130 127 157 181 216 220 226
216 219 221 221 220 224 228 223 227 239 243 239 236 232 231 228 230 231 223 217 212 208 213 212 205 196 192 192 186 187 177 171 158 167 152 125 122 124 123 116 122 150 232 237
214 218 221 217 220 225 232 228 227 240 246 246 234 231 227 224 224 226 220 216 213 207 212 210 208 200 193 191 185 187 186 173 163 161 169 167 140 134 131 138 231 265 224 195
Height
10968 10971 10974 10978 10982 10989 10983 10984 10983 10981 10979 10979 10980 10980 10980 10980 10979 10979 10978 10976 10976 10976 10974 10973 10973 10971 10970 10968 10966 10964 10964 10964 10964 10964 10966 10969 10972 10977 10980 10983 10987 10990 10994 10998
10962 10965 10968 10968 10974 10975 10976 10978 10977 10976 10976 10978 10980 10981 10981 10980 10980 10978 10976 10975 10975 10974 10973 10970 10969 10967 10966 10965 10965 10964 10962 10960 10959 10960 10961 10964 10969 10973 10975 10979 10982 10986 10990 10993
10956 10959 10962 10960 10964 10966 10969 10970 10970 10971 10975 10980 10983 10979 10978 10981 10981 10978 10976 10974 10972 10970 10969 10968 10966 10964 10963 10962 10960 10959 10959 10958 10958 10958 10958 10960 10964 10968 10972 10976 10979 10982 10986 10988
10949 10953 10954 10954 10956 10960 10961 10963 10964 10965 10971 10977 10975 10974 10974 10978 10982 10978 10975 10972 10970 10968 10966 10964 10962 10962 10960 10959 10957 10955 10954 10953 10954 10955 10956 10958 10961 10963 10968 10972 10977 10979 10982 10986
10940 10946 10948 10949 10950 10953 10956 10955 10957 10958 10963 10972 10978 10974 10972 10974 10979 10978 10974 10971 10967 10964 10963 10962 10960 10960 10959 10957 10956 10955 10954 10952 10952 10953 10955 10957 10959 10961 10965 10969 10974 10978 10982 10986
10933 10939 10942 10941 10945 10948 10950 10948 10949 10950 10954 10960 10970 10971 10969 10972 10971 10973 10972 10970 10965 10961 10960 10958 10958 10959 10958 10958 10958 10956 10954 10952 10951 10951 10953 10954 10957 10957 10961 10967 10974 10979 10983 10989
10927 10930 10934 10936 10938 10941 10942 10941 10942 10944 10947 10954 10962 10967 10963 10973 10966 10966 10968 10966 10962 10960 10958 10955 10957 10958 10958 10958 10957 10958 10956 10954 10953 10952 10952 10952 10953 10955 10959 10965 10969 10971 10970 10984
10918 10921 10925 10929 10932 10933 10935 10935 10937 10938 10942 10949 10957 10962 10963 10966 10950 10960 10962 10962 10958 10957 10956 10953 10955 10956 10957 10957 10957 10958 10958 10955 10955 10954 10953 10952 10952 10954 10958 10966 10965 10956 10964 10976
10910 10914 10916 10921 10922 10926 10927 10929 10927 10932 10938 10942 10952 10947 10953 10951 10954 10954 10956 10956 10953 10954 10953 10953 10953 10954 10954 10956 10956 10956 10957 10957 10956 10956 10955 10954 10954 10954 10956 10963 10970 10969 10967 10989
10902 10906 10909 10913 10916 10917 10919 10919 10921 10926 10932 10936 10940 10941 10938 10942 10943 10947 10951 10948 10947 10948 10948 10950 10952 10952 10952 10953 10955 10954 10955 10956 10955 10954 10955 10956 10955 10954 10953 10957 10965 10971 10967 10980
10895 10900 10903 10905 10907 10910 10913 10915 10916 10916 10921 10926 10931 10931 10926 10933 10936 10940 10942 10942 10942 10942 10943 10947 10949 10949 10949 10950 10950 10953 10952 10952 10953 10953 10955 10954 10954 10954 10952 10952 10957 10961 10953 10954
10887 10891 10894 10897 10900 10902 10905 10907 10910 10912 10914 10917 10921 10923 10921 10922 10928 10932 10934 10935 10936 10935 10937 10942 10944 10943 10943 10943 10946 10947 10947 10951 10952 10951 10951 10952 10952 10951 10950 10948 10950 10954 10957 10954
10880 10884 10886 10889 10892 10896 10898 10902 10904 10905 10904 10910 10913 10918 10914 10913 10920 10925 10927 10931 10930 10930 10931 10935 10938 10938 10938 10938 10941 10941 10943 10947 10948 10949 10950 10950 10950 10949 10948 10946 10944 10946 10951 10958
10872 10876 10879 10882 10885 10890 10892 10894 10897 10898 10899 10900 10904 10907 10901 10908 10913 10919 10921 10924 10926 10924 10926 10928 10932 10932 10931 10932 10935 10936 10938 10942 10943 10945 10947 10947 10947 10945 10945 10944 10942 10943 10944 10949
10863 10867 10871 10875 10880 10882 10885 10888 10890 10892 10892 10894 10896 10896 10898 10900 10906 10909 10919 10918 10919 10918 10920 10923 10926 10927 10926 10926 10929 10932 10933 10937 10939 10941 10943 10944 10944 10943 10943 10942 10942 10941 10944 10948
10854 10858 10864 10868 10872 10875 10877 10879 10881 10884 10886 10888 10888 10890 10889 10893 10900 10904 10908 10910 10915 10914 10913 10917 10921 10922 10922 10922 10923 10927 10929 10932 10935 10937 10940 10941 10940 10940 10941 10942 10943 10943 10947 10950
10845 10850 10855 10860 10864 10866 10868 10870 10872 10876 10879 10881 10883 10882 10883 10888 10896 10897 10899 10902 10907 10909 10910 10912 10915 10916 10918 10918 10919 10922 10925 10928 10931 10933 10935 10937 10936 10936 10936 10938 10940 10945 10948 10950
10839 10843 10848 10852 10856 10859 10859 10864 10866 10868 10869 10873 10874 10874 10876 10883 10889 10890 10892 10897 10901 10905 10907 10909 10912 10912 10914 10915 10917 10919 10922 10924 10928 10930 10931 10932 10932 10931 10931 10932 10935 10943 10946 10948
10827 10832 10839 10845 10848 10849 10855 10856 10859 10861 10862 10864 10867 10869 10872 10876 10881 10884 10886 10891 10896 10900 10903 10906 10907 10909 10911 10912 10915 10918 10921 10924 10927 10929 10930 10930 10929 10927 10925 10927 10933 10939 10944 10946
10814 10821 10829 10836 10840 10843 10845 10849 10851 10853 10855 10857 10860 10863 10865 10870 10876 10878 10881 10884 10891 10894 10899 10900 10902 10906 10909 10911 10914 10916 10919 10922 10922 10922 10923 10922 10922 10920 10922 10926 10930 10935 10939 10942
10801 10810 10819 10824 10831 10833 10836 10845 10844 10845 10851 10851 10854 10856 10858 10864 10869 10869 10874 10877 10884 10886 10891 10893 10897 10902 10907 10909 10911 10913 10915 10916 10916 10917 10917 10916 10914 10915 10922 10927 10932 10936 10940 10942
10789 10798 10808 10813 10821 10823 10830 10832 10836 10837 10841 10843 10846 10849 10852 10856 10860 10862 10866 10871 10877 10881 10884 10886 10892 10898 10902 10905 10907 10909 10911 10912 10913 10915 10914 10911 10911 10912 10917 10926 10934 10938 10940 10941
10777 10788 10795 10802 10805 10813 10818 10824 10825 10830 10833 10836 10838 10841 10845 10848 10852 10856 10859 10864 10869 10874 10878 10881 10888 10893 10897 10900 10903 10906 10908 10909 10911 10913 10912 10910 10910 10912 10915 10920 10928 10934 10937 10936
10767 10775 10783 10790 10801 10802 10809 10813 10819 10821 10825 10829 10831 10834 10836 10840 10843 10848 10852 10856 10860 10866 10871 10875 10882 10887 10890 10896 10900 10904 10906 10909 10911 10913 10913 10911 10912 10916 10919 10921 10922 10930 10934 10934
10753 10763 10773 10779 10790 10793 10796 10806 10810 10812 10816 10822 10825 10827 10830 10833 10836 10840 10845 10849 10853 10858 10863 10869 10873 10878 10881 10888 10894 10899 10903 10907 10909 10913 10915 10916 10916 10915 10920 10923 10925 10927 10931 10934
10748 10755 10760 10767 10775 10782 10791 10795 10802 10805 10809 10814 10817 10820 10822 10825 10829 10833 10837 10840 10845 10850 10855 10863 10867 10872 10875 10881 10888 10893 10897 10901 10905 10908 10913 10916 10916 10915 10921 10922 10925 10926 10925 10927